Tracking 19219 objects as of 19-Jul-2018
HD Live streaming from Space Station
objects crossing your sky now

MOLNIYA 2-14

Track MOLNIYA 2-14 now!
MOLNIYA 2-14 is classified as:


NORAD ID: 8195
Int'l Code: 1975-081A
Perigee: 216.0 km
Apogee: 40,036.7 km
Inclination: 62.1 °
Period: 715.4 minutes
Semi major axis: 26497 km
RCS: 17.1549 m2 (large)
Launch date: September 9, 1975
Source: Commonwealth of Independent States (former USSR) (CIS)
Launch site: PLESETSK MISSILE AND SPACE COMPLEX (PKMTR)
aabbcc
Your satellite tracking list
Your tracking list is empty




NASA's NSSDC Master Catalog

Two Line Element Set (TLE):
1  8195U 75081A   18198.72081368 +.00005394 +00000-0 +50165-3 0  9997
2  8195 062.0868 033.2641 7514099 284.5474 009.3157 02.01279257314001
Source of the keplerian elements: AFSPC